COSMOS 2251 DEB

Satellite information

Favourite Embed

Satellite Type and Status

DEBRISIN ORBIT

Key statistics

Satellite COSMOS 2251 DEB at a glance.

Uptime

11707

Days in orbit

Revolutions

≈ 13.9

Per day

Orbit

LEO

Low Earth Orbit

Inclination

73.9

Latest

Satellite identification and parameters

Extended collection of information and parameters for COSMOS 2251 DEB.

Object identification

Identified? True

Debris? True

Object name: COSMOS 2251 DEB

International designator: 1993-036WB

Object number (NORAD): 34589

Object ID (CCSDS): 34589

Country: COMMONWEALTH OF INDEPENDENT STATES (CIS)

Current information (Y/N): Y

RCS size: SMALL

Orbital parameters

Period: 103.914 minutes

Inclination: 73.9265 deg

SMA: 7321.652 km

Apoapsis: 1127.342 km

Periapsis: 759.692 km

RAAN: 330.1555 deg

Eccentricy: 0.025107

Argument of periapsis: 305.8954 deg

Mean anomaly: 207.2733 deg

Mean motion: 13.85763548 rev/day

Mean motion (dot): 0.00000624 rev/day2

B* drag term: 0.00044298 1/REarth

Two-line elements (TLE)

Creation date: July 4, 2025, 10:46 p.m.

Reference frame: TEME

Reference center: EARTH

Epoch: July 4, 2025, 7:34 p.m. UTC

TLE line 0: 0 COSMOS 2251 DEB

TLE line 1: 1 34589U 93036WB 25185.81581081 .00000624 00000-0 44298-3 0 9995

TLE line 2: 2 34589 73.9265 330.1555 0251070 305.8954 207.2733 13.85763548825834

Live tracking on map

Real-time ground track for satellite COSMOS 2251 DEB.

In-orbit conjunctions

A list of the most updated potential collisions computed for object COSMOS 2251 DEB.

Target Orbit TCA Probability of collision Miss distance Type
ORBCOMM FM 28 LEO 2025-02-08 18:34:14 0.0005866272 320.0 (m) PAYLOAD
SL-8 R/B LEO 2024-11-16 10:23:43 0.0001294502 472.0 (m) ROCKET BODY
FENGYUN 1C DEB SSO 2024-11-09 08:44:53 0.0006211155 541.0 (m) DEBRIS

Associated space launch

Military communications satellite. Destroyed in a collision with Iridium 33.

COSMOS 2251 DEB was lifted into orbit during the mission ‘Kosmos-3M | Strela-2M 51’, on board a Kosmos-3M space rocket.

The launch took place on June 16, 1993, 4:17 a.m. from 132/1 (132L).

For more information about the launch, click the button.

Launch to space Kosmos-3M | Strela-2M 51
Kosmos-3M | Strela-2M 51

Agency: N/A

Status: Launch Successful

Launch date: June 16, 1993, 4:17 a.m. UTC

Rocket: Kosmos-3M

Launch pad: 132/1 (132L)

Location: Plesetsk Cosmodrome, Russian Federation

...

Latest news about this satellite

There are no fresh news available about this satellite. Check back as we update our databases every day.


Newsletter sign-up

Weekly statistics, charts and insights to help you stay on top of the space industry.